Regional Weather Roundup
Issued by NWS

Home | Current Version | Previous Version | Text Only | Print | Product List | Glossary Off
Versions: 1 2 3 4 5 6 7 8 9 10 11 12 13 14 15 16 17 18 19 20 21 22 23 24 25 26 27 28 29 30 31 32 33 34 35 36 37 38 39 40 41 42 43 44 45 46 47 48 49 50

000
ASUS43 KFSD 291902
RWRSD

WEATHER ROUNDUP FOR SOUTH DAKOTA
NATIONAL WEATHER SERVICE SIOUX FALLS SD
200 PM CDT THU SEP 29 2016

NOTE: "FAIR" INDICATES FEW OR NO CLOUDS BELOW 12,000 FEET WITH NO
SIGNIFICANT WEATHER AND/OR OBSTRUCTIONS TO VISIBILITY.


SDZ001>005-009-010-012>017-292000-
NORTHWEST AND NORTH CENTRAL SOUTH DAKOTA

CITY           SKY/WX    TMP DP  RH WIND       PRES   REMARKS
BUFFALO          N/A     78  43  28 SE18G30   30.15F
FAITH            N/A     74  41  30 SE21G31   30.26F
MOBRIDGE       SUNNY     70  43  37 SE18      30.32F
$$

SDZ012>016-024>037-041>051-057-063-072>074-292000-
SOUTHWEST AND SOUTH CENTRAL SOUTH DAKOTA

CITY           SKY/WX    TMP DP  RH WIND       PRES   REMARKS
RAPID CTY ARPT   N/A    N/A N/A N/A MISG      30.26F
PIERRE         SUNNY     70  44  39 SE20G28   30.32F
CUSTER         SUNNY     69  39  33 SE10G22   30.35F
ELLSWORTH AFB  SUNNY     76  45  33 S20       30.24F
PHILIP         SUNNY     78  44  29 SE17G24   30.26F
PINE RIDGE     SUNNY     79  43  27 S16       30.27F
WINNER         FAIR      71  45  39 SE17G24   30.36F
$$

SDZ004>011-016>023-039-040-292000-
NORTHEAST SOUTH DAKOTA

CITY           SKY/WX    TMP DP  RH WIND       PRES   REMARKS
ABERDEEN       SUNNY     67  46  47 SE12G23   30.41F
WATERTOWN      SUNNY     63  46  54 SE9       30.43F
SISSETON         N/A     65  45  48 S13       30.43F
$$

SDZ017-020-022-023-036>040-048>070-292000-
SOUTHEAST SOUTH DAKOTA

CITY           SKY/WX    TMP DP  RH WIND       PRES   REMARKS
SIOUX FALLS    MOSUNNY   66  49  54 VRB3      30.42F
HURON          SUNNY     66  47  50 SE9       30.41F
CHAMBERLAIN    SUNNY     69  47  44 SE12      30.38F
MITCHELL       SUNNY     67  47  48 S8        30.42F
YANKTON        SUNNY     64  48  55 CALM      30.40F
$$

ABBREVIATIONS USED IN REMARKS
   TC - TEMPERATURE IN CELSIUS
  WCI - WIND CHILL INDEX
   HX - HEAT INDEX
  VSB - VISIBILITY




USA.gov is the U.S. government's official web portal to all federal, state and local government web resources and services.